Time,TemperatureF,DewpointF,PressureIn,WindDirection,WindDirectionDegrees,WindSpeedMPH,WindSpeedGustMPH,Humidity,HourlyPrecipIn,Conditions,Clouds,dailyrainin,SoftwareType,DateUTC
2013-10-10 00:00:00,82.0,78.0,30.00,NNE,30,6.0,7.0,88,-99.99,,,-99.99,,2013-10-10 04:00:00,
2013-10-10 00:44:00,82.0,78.0,30.00,NNE,30,6.0,7.0,88,-99.99,,,-99.99,,2013-10-10 04:44:00,
2013-10-10 00:53:00,82.0,78.0,30.00,NNE,30,6.0,7.0,88,-99.99,,,-99.99,,2013-10-10 04:53:00,
2013-10-10 01:00:00,82.0,78.0,29.99,NE,40,5.0,6.0,87,-99.99,,,-99.99,,2013-10-10 05:00:00,
2013-10-10 01:22:00,82.0,78.0,29.99,NE,40,5.0,6.0,87,-99.99,,,-99.99,,2013-10-10 05:22:00,
2013-10-10 01:34:00,82.0,78.0,29.99,NE,40,5.0,6.0,87,-99.99,,,-99.99,,2013-10-10 05:34:00,
2013-10-10 01:43:00,82.0,78.0,29.99,NE,40,5.0,6.0,87,-99.99,,,-99.99,,2013-10-10 05:43:00,
2013-10-10 01:52:00,82.0,78.0,29.99,NE,40,5.0,6.0,87,-99.99,,,-99.99,,2013-10-10 05:52:00,
2013-10-10 02:00:00,81.0,78.0,29.98,NE,40,5.0,5.0,89,-99.99,,,-99.99,,2013-10-10 06:00:00,
2013-10-10 02:42:00,81.0,78.0,29.98,NE,40,5.0,5.0,89,-99.99,,,-99.99,,2013-10-10 06:42:00,
2013-10-10 02:52:00,81.0,78.0,29.98,NE,40,5.0,5.0,89,-99.99,,,-99.99,,2013-10-10 06:52:00,
2013-10-10 03:00:00,80.0,76.0,29.97,ESE,120,9.0,10.0,87,-99.99,,,-99.99,,2013-10-10 07:00:00,
2013-10-10 03:42:00,80.0,76.0,29.97,ESE,120,9.0,10.0,87,-99.99,,,-99.99,,2013-10-10 07:42:00,
2013-10-10 03:52:00,80.0,76.0,29.97,ESE,120,9.0,10.0,87,-99.99,,,-99.99,,2013-10-10 07:52:00,
2013-10-10 04:00:00,81.0,79.0,29.97,ENE,70,7.0,8.0,94,-99.99,,,-99.99,,2013-10-10 08:00:00,
2013-10-10 04:22:00,81.0,79.0,29.97,ENE,70,7.0,8.0,94,-99.99,,,-99.99,,2013-10-10 08:22:00,
2013-10-10 04:32:00,81.0,79.0,29.97,ENE,70,7.0,8.0,94,-99.99,,,-99.99,,2013-10-10 08:32:00,
2013-10-10 04:42:00,81.0,79.0,29.97,ENE,70,7.0,8.0,94,-99.99,,,-99.99,,2013-10-10 08:42:00,
2013-10-10 04:52:00,81.0,79.0,29.97,ENE,70,7.0,8.0,94,-99.99,,,-99.99,,2013-10-10 08:52:00,
2013-10-10 05:00:00,80.0,78.0,29.96,ENE,60,17.0,18.0,95,-99.99,,,-99.99,,2013-10-10 09:00:00,
2013-10-10 05:21:00,80.0,78.0,29.96,ENE,60,17.0,18.0,95,-99.99,,,-99.99,,2013-10-10 09:21:00,
2013-10-10 05:33:00,80.0,78.0,29.96,ENE,60,17.0,18.0,95,-99.99,,,-99.99,,2013-10-10 09:33:00,
2013-10-10 05:42:00,80.0,78.0,29.96,ENE,60,17.0,18.0,95,-99.99,,,-99.99,,2013-10-10 09:42:00,
2013-10-10 05:53:00,80.0,78.0,29.96,ENE,60,17.0,18.0,95,-99.99,,,-99.99,,2013-10-10 09:53:00,
2013-10-10 06:00:00,79.0,79.0,29.96,NE,50,16.0,17.0,98,-99.99,,,-99.99,,2013-10-10 10:00:00,
2013-10-10 06:42:00,79.0,79.0,29.96,NE,50,16.0,17.0,98,-99.99,,,-99.99,,2013-10-10 10:42:00,
2013-10-10 06:53:00,79.0,79.0,29.96,NE,50,16.0,17.0,98,-99.99,,,-99.99,,2013-10-10 10:53:00,
2013-10-10 07:00:00,79.0,79.0,29.96,NE,40,15.0,16.0,98,-99.99,,,-99.99,,2013-10-10 11:00:00,
2013-10-10 07:21:00,79.0,79.0,29.96,NE,40,15.0,16.0,98,-99.99,,,-99.99,,2013-10-10 11:21:00,
2013-10-10 07:33:00,79.0,79.0,29.96,NE,40,15.0,16.0,98,-99.99,,,-99.99,,2013-10-10 11:33:00,
2013-10-10 07:42:00,79.0,79.0,29.96,NE,40,15.0,16.0,98,-99.99,,,-99.99,,2013-10-10 11:42:00,
2013-10-10 07:53:00,79.0,79.0,29.96,NE,40,15.0,16.0,98,-99.99,,,-99.99,,2013-10-10 11:53:00,
2013-10-10 08:00:00,79.0,79.0,29.97,NE,40,13.0,15.0,98,-99.99,,,-99.99,,2013-10-10 12:00:00,
2013-10-10 08:21:00,79.0,79.0,29.97,NE,40,13.0,15.0,98,-99.99,,,-99.99,,2013-10-10 12:21:00,
2013-10-10 08:32:00,79.0,79.0,29.97,NE,40,13.0,15.0,98,-99.99,,,-99.99,,2013-10-10 12:32:00,
2013-10-10 08:41:00,79.0,79.0,29.97,NE,40,13.0,15.0,98,-99.99,,,-99.99,,2013-10-10 12:41:00,
2013-10-10 08:51:00,79.0,79.0,29.97,NE,40,13.0,15.0,98,-99.99,,,-99.99,,2013-10-10 12:51:00,
2013-10-10 09:00:00,79.0,79.0,29.99,NE,40,15.0,15.0,98,-99.99,,,-99.99,,2013-10-10 13:00:00,
2013-10-10 09:21:00,79.0,79.0,29.99,NE,40,15.0,15.0,98,-99.99,,,-99.99,,2013-10-10 13:21:00,
2013-10-10 09:31:00,79.0,79.0,29.99,NE,40,15.0,15.0,98,-99.99,,,-99.99,,2013-10-10 13:31:00,
2013-10-10 09:41:00,79.0,79.0,29.99,NE,40,15.0,15.0,98,-99.99,,,-99.99,,2013-10-10 13:41:00,
2013-10-10 09:52:00,79.0,79.0,29.99,NE,40,15.0,15.0,98,-99.99,,,-99.99,,2013-10-10 13:52:00,
2013-10-10 10:00:00,79.0,78.0,30.01,ENE,60,13.0,14.0,94,-99.99,,,-99.99,,2013-10-10 14:00:00,
2013-10-10 10:21:00,79.0,78.0,30.01,ENE,60,13.0,14.0,94,-99.99,,,-99.99,,2013-10-10 14:21:00,
2013-10-10 10:32:00,79.0,78.0,30.01,ENE,60,13.0,14.0,94,-99.99,,,-99.99,,2013-10-10 14:32:00,
2013-10-10 10:42:00,79.0,78.0,30.01,ENE,60,13.0,14.0,94,-99.99,,,-99.99,,2013-10-10 14:42:00,
2013-10-10 10:52:00,79.0,78.0,30.01,ENE,60,13.0,14.0,94,-99.99,,,-99.99,,2013-10-10 14:52:00,
2013-10-10 11:00:00,79.0,79.0,30.02,NE,50,11.0,13.0,97,-99.99,,,-99.99,,2013-10-10 15:00:00,
2013-10-10 11:43:00,79.0,79.0,30.02,NE,50,11.0,13.0,97,-99.99,,,-99.99,,2013-10-10 15:43:00,
2013-10-10 11:54:00,79.0,79.0,30.02,NE,50,11.0,13.0,97,-99.99,,,-99.99,,2013-10-10 15:54:00,
2013-10-10 12:00:00,80.0,79.0,30.03,NE,50,14.0,15.0,95,-99.99,,,-99.99,,2013-10-10 16:00:00,
2013-10-10 12:42:00,80.0,79.0,30.03,NE,50,14.0,15.0,95,-99.99,,,-99.99,,2013-10-10 16:42:00,
2013-10-10 12:53:00,80.0,79.0,30.03,NE,50,14.0,15.0,95,-99.99,,,-99.99,,2013-10-10 16:53:00,
2013-10-10 13:00:00,81.0,78.0,30.01,NE,40,13.0,15.0,90,-99.99,,,-99.99,,2013-10-10 17:00:00,
2013-10-10 13:42:00,81.0,78.0,30.01,NE,40,13.0,15.0,90,-99.99,,,-99.99,,2013-10-10 17:42:00,
2013-10-10 13:52:00,81.0,78.0,30.01,NE,40,13.0,15.0,90,-99.99,,,-99.99,,2013-10-10 17:52:00,
2013-10-10 14:00:00,81.0,77.0,29.98,NE,50,14.0,14.0,86,-99.99,,,-99.99,,2013-10-10 18:00:00,
2013-10-10 14:41:00,81.0,77.0,29.98,NE,50,14.0,14.0,86,-99.99,,,-99.99,,2013-10-10 18:41:00,
2013-10-10 14:52:00,81.0,77.0,29.98,NE,50,14.0,14.0,86,-99.99,,,-99.99,,2013-10-10 18:52:00,
2013-10-10 15:00:00,82.0,75.0,29.97,NE,40,9.0,10.0,77,-99.99,,,-99.99,,2013-10-10 19:00:00,
2013-10-10 15:21:00,82.0,75.0,29.97,NE,40,9.0,10.0,77,-99.99,,,-99.99,,2013-10-10 19:21:00,
2013-10-10 15:31:00,82.0,75.0,29.97,NE,40,9.0,10.0,77,-99.99,,,-99.99,,2013-10-10 19:31:00,
2013-10-10 15:42:00,82.0,75.0,29.97,NE,40,9.0,10.0,77,-99.99,,,-99.99,,2013-10-10 19:42:00,
2013-10-10 15:52:00,82.0,75.0,29.97,NE,40,9.0,10.0,77,-99.99,,,-99.99,,2013-10-10 19:52:00,
2013-10-10 16:00:00,83.0,74.0,29.96,ENE,70,6.0,6.0,74,-99.99,,,-99.99,,2013-10-10 20:00:00,
2013-10-10 16:22:00,83.0,74.0,29.96,ENE,70,6.0,6.0,74,-99.99,,,-99.99,,2013-10-10 20:22:00,
2013-10-10 16:32:00,83.0,74.0,29.96,ENE,70,6.0,6.0,74,-99.99,,,-99.99,,2013-10-10 20:32:00,
2013-10-10 16:42:00,83.0,74.0,29.96,ENE,70,6.0,6.0,74,-99.99,,,-99.99,,2013-10-10 20:42:00,
2013-10-10 16:52:00,83.0,74.0,29.96,ENE,70,6.0,6.0,74,-99.99,,,-99.99,,2013-10-10 20:52:00,
2013-10-10 17:00:00,83.0,74.0,29.96,ENE,70,8.0,9.0,73,-99.99,,,-99.99,,2013-10-10 21:00:00,
2013-10-10 17:21:00,83.0,74.0,29.96,ENE,70,8.0,9.0,73,-99.99,,,-99.99,,2013-10-10 21:21:00,
2013-10-10 17:34:00,83.0,74.0,29.96,ENE,70,8.0,9.0,73,-99.99,,,-99.99,,2013-10-10 21:34:00,
2013-10-10 17:43:00,83.0,74.0,29.96,ENE,70,8.0,9.0,73,-99.99,,,-99.99,,2013-10-10 21:43:00,
2013-10-10 17:54:00,83.0,74.0,29.96,ENE,70,8.0,9.0,73,-99.99,,,-99.99,,2013-10-10 21:54:00,
2013-10-10 18:00:00,82.0,80.0,29.95,East,90,13.0,14.0,93,-99.99,,,-99.99,,2013-10-10 22:00:00,
2013-10-10 18:53:00,82.0,80.0,29.95,East,90,13.0,14.0,93,-99.99,,,-99.99,,2013-10-10 22:53:00,
2013-10-10 19:00:00,81.0,79.0,29.96,East,100,11.0,13.0,92,-99.99,,,-99.99,,2013-10-10 23:00:00,
2013-10-10 19:23:00,81.0,79.0,29.96,East,100,11.0,13.0,92,-99.99,,,-99.99,,2013-10-10 23:23:00,
2013-10-10 19:33:00,81.0,79.0,29.96,East,100,11.0,13.0,92,-99.99,,,-99.99,,2013-10-10 23:33:00,
2013-10-10 19:43:00,81.0,79.0,29.96,East,100,11.0,13.0,92,-99.99,,,-99.99,,2013-10-10 23:43:00,
2013-10-10 19:52:00,81.0,79.0,29.96,East,100,11.0,13.0,92,-99.99,,,-99.99,,2013-10-10 23:52:00,
2013-10-10 20:00:00,78.0,78.0,29.98,NNE,30,6.0,7.0,98,-99.99,,,-99.99,,2013-10-11 00:00:00,
2013-10-10 20:21:00,78.0,78.0,29.98,NNE,30,6.0,7.0,98,-99.99,,,-99.99,,2013-10-11 00:21:00,
2013-10-10 20:32:00,78.0,78.0,29.98,NNE,30,6.0,7.0,98,-99.99,,,-99.99,,2013-10-11 00:32:00,
2013-10-10 20:42:00,78.0,78.0,29.98,NNE,30,6.0,7.0,98,-99.99,,,-99.99,,2013-10-11 00:42:00,
2013-10-10 20:52:00,78.0,78.0,29.98,NNE,30,6.0,7.0,98,-99.99,,,-99.99,,2013-10-11 00:52:00,
2013-10-10 21:00:00,81.0,77.0,29.99,East,90,15.0,17.0,85,-99.99,,,-99.99,,2013-10-11 01:00:00,
2013-10-10 21:42:00,81.0,77.0,29.99,East,90,15.0,17.0,85,-99.99,,,-99.99,,2013-10-11 01:42:00,
2013-10-10 21:52:00,81.0,77.0,29.99,East,90,15.0,17.0,85,-99.99,,,-99.99,,2013-10-11 01:52:00,
2013-10-10 22:00:00,82.0,76.0,30.01,East,90,16.0,18.0,82,-99.99,,,-99.99,,2013-10-11 02:00:00,
2013-10-10 22:42:00,82.0,76.0,30.01,East,90,16.0,18.0,82,-99.99,,,-99.99,,2013-10-11 02:42:00,
2013-10-10 22:52:00,82.0,76.0,30.01,East,90,16.0,18.0,82,-99.99,,,-99.99,,2013-10-11 02:52:00,
2013-10-10 23:00:00,80.0,78.0,29.99,ESE,110,16.0,17.0,93,-99.99,,,-99.99,,2013-10-11 03:00:00,
2013-10-10 23:23:00,80.0,78.0,29.99,ESE,110,16.0,17.0,93,-99.99,,,-99.99,,2013-10-11 03:23:00,
2013-10-10 23:34:00,80.0,78.0,29.99,ESE,110,16.0,17.0,93,-99.99,,,-99.99,,2013-10-11 03:34:00,
2013-10-10 23:44:00,80.0,78.0,29.99,ESE,110,16.0,17.0,93,-99.99,,,-99.99,,2013-10-11 03:44:00,
2013-10-10 23:54:00,80.0,78.0,29.99,ESE,110,16.0,17.0,93,-99.99,,,-99.99,,2013-10-11 03:54:00,